Location: Newark
(41.4981°N, 44.1297°E)
Time: 23:00:21
(UTC+00:00)

Starlink Launch 2 leader - Visible Passes

Search period start: 11 December 2019 00:00
Search period end: 21 December 2019 00:00
Orbit: 279 x 281 km, 53.0° (Epoch: 13 November)

Date Brightness Start Highest point End Pass type
(mag) Time Alt. Az. Time Alt. Az. Time Alt. Az.
11 Dec 4.6 02:24:17 23° SE 02:24:17 23° SE 02:25:24 10° SE visible
12 Dec 5.1 02:26:35 14° SSE 02:26:35 14° SSE 02:27:02 10° SSE visible
20 Dec 5.4 15:41:52 10° SW 15:42:22 14° SW 15:42:22 14° SW visible
